Radiation Dose at Monitoring Post of Fukushima Daini Nuclear Power Station
Date,Time,MP-1(microSv/h),MP-2(microSv/h),MP-3(microSv/h),MP-4(microSv/h),MP-5(microSv/h),MP-6(microSv/h),MP-7(microSv/h),Wind Direction,Wind Velocity(m/s),Rain
2019/04/01,00:00,0.205,0.188,0.309,0.289,0.274,0.155,0.093,north-northwest,3.3,No
2019/04/01,00:10,0.205,0.188,0.311,0.288,0.274,0.154,0.094,northwest,3.6,No
2019/04/01,00:20,0.205,0.189,0.309,0.288,0.274,0.155,0.093,northwest,3.3,No
2019/04/01,00:30,0.205,0.188,0.309,0.290,0.273,0.154,0.094,west-northwest,4.2,No
2019/04/01,00:40,0.206,0.188,0.309,0.289,0.276,0.154,0.093,west-northwest,4.2,No
2019/04/01,00:50,0.204,0.189,0.311,0.290,0.275,0.154,0.093,northwest,5.6,No
2019/04/01,01:00,0.203,0.187,0.311,0.289,0.275,0.155,0.094,west-northwest,7.1,No
2019/04/01,01:10,0.204,0.188,0.311,0.289,0.275,0.155,0.094,west,7.4,No
2019/04/01,01:20,0.205,0.188,0.309,0.289,0.275,0.155,0.093,west-northwest,8.4,No
2019/04/01,01:30,0.206,0.188,0.311,0.290,0.276,0.155,0.093,northwest,5.1,No
2019/04/01,01:40,0.205,0.188,0.311,0.289,0.275,0.155,0.094,northwest,6.5,No
2019/04/01,01:50,0.204,0.189,0.311,0.289,0.275,0.155,0.094,west-northwest,6.6,No
2019/04/01,02:00,0.205,0.187,0.310,0.290,0.277,0.154,0.093,west-northwest,9.6,No
2019/04/01,02:10,0.205,0.189,0.310,0.290,0.275,0.155,0.093,west-northwest,8.4,No
2019/04/01,02:20,0.205,0.190,0.311,0.290,0.275,0.156,0.094,west-northwest,5.6,No
2019/04/01,02:30,0.205,0.188,0.310,0.288,0.275,0.155,0.094,northwest,7.3,No
2019/04/01,02:40,0.206,0.189,0.310,0.287,0.276,0.154,0.094,west,5.3,No
2019/04/01,02:50,0.204,0.188,0.309,0.290,0.275,0.155,0.093,west-northwest,7.3,No
2019/04/01,03:00,0.204,0.188,0.311,0.289,0.275,0.155,0.094,northwest,5.6,No
2019/04/01,03:10,0.205,0.188,0.311,0.289,0.275,0.154,0.094,northwest,5.2,No
2019/04/01,03:20,0.204,0.189,0.311,0.289,0.275,0.155,0.094,northwest,6.6,No
2019/04/01,03:30,0.205,0.189,0.310,0.290,0.275,0.154,0.093,west-northwest,7.9,No
2019/04/01,03:40,0.205,0.188,0.312,0.288,0.275,0.154,0.094,northwest,7.8,No
2019/04/01,03:50,0.206,0.188,0.311,0.289,0.277,0.154,0.093,northwest,9.6,No
2019/04/01,04:00,0.204,0.189,0.311,0.290,0.275,0.154,0.094,northwest,6.7,No
2019/04/01,04:10,0.205,0.189,0.309,0.290,0.275,0.155,0.094,northwest,8.7,No
2019/04/01,04:20,0.204,0.188,0.310,0.290,0.275,0.155,0.093,northwest,9.0,No
2019/04/01,04:30,0.205,0.188,0.309,0.290,0.273,0.155,0.094,northwest,6.7,No
2019/04/01,04:40,0.205,0.188,0.310,0.289,0.276,0.154,0.094,northwest,8.7,No
2019/04/01,04:50,0.204,0.189,0.310,0.289,0.275,0.155,0.093,northwest,9.3,No
2019/04/01,05:00,0.205,0.189,0.310,0.290,0.273,0.155,0.093,northwest,11.1,No
2019/04/01,05:10,0.205,0.189,0.312,0.289,0.275,0.155,0.093,northwest,7.4,No
2019/04/01,05:20,0.205,0.188,0.311,0.290,0.274,0.156,0.094,north-northwest,6.0,No
2019/04/01,05:30,0.205,0.188,0.311,0.288,0.275,0.154,0.094,northwest,8.2,No
2019/04/01,05:40,0.205,0.189,0.311,0.289,0.275,0.155,0.093,northwest,8.2,No
2019/04/01,05:50,0.204,0.190,0.310,0.289,0.274,0.155,0.093,northwest,6.4,No
2019/04/01,06:00,0.205,0.189,0.310,0.290,0.275,0.155,0.094,north,3.7,No
2019/04/01,06:10,0.205,0.189,0.312,0.289,0.276,0.154,0.094,north,5.1,No
2019/04/01,06:20,0.205,0.189,0.311,0.289,0.275,0.154,0.094,north,5.2,No
2019/04/01,06:30,0.205,0.189,0.311,0.290,0.274,0.155,0.094,north-northeast,3.8,No
2019/04/01,06:40,0.204,0.189,0.311,0.289,0.274,0.155,0.093,north-northeast,6.5,No
2019/04/01,06:50,0.204,0.188,0.310,0.288,0.275,0.156,0.094,north-northeast,6.1,No
2019/04/01,07:00,0.205,0.190,0.310,0.289,0.275,0.154,0.091,north-northeast,5.1,No
2019/04/01,07:10,0.205,0.189,0.310,0.289,0.273,0.154,0.092,north,3.7,No
2019/04/01,07:20,0.205,0.188,0.310,0.287,0.275,0.154,0.093,north-northeast,2.4,No
2019/04/01,07:30,0.205,0.188,0.309,0.290,0.275,0.154,0.092,north-northeast,3.7,No
2019/04/01,07:40,0.205,0.188,0.310,0.289,0.274,0.155,0.093,north-northeast,3.5,No
2019/04/01,07:50,0.206,0.188,0.311,0.287,0.276,0.154,0.093,north,3.7,No
2019/04/01,08:00,0.204,0.188,0.309,0.289,0.275,0.154,0.093,north-northwest,2.6,No
2019/04/01,08:10,0.204,0.189,0.309,0.288,0.275,0.155,0.094,north-northwest,3.4,No
2019/04/01,08:20,0.206,0.188,0.310,0.289,0.274,0.154,0.093,north,3.8,No
2019/04/01,08:30,0.205,0.188,0.311,0.288,0.274,0.154,0.093,north-northeast,3.0,No
2019/04/01,08:40,0.205,0.188,0.310,0.288,0.275,0.155,0.093,north-northwest,2.4,No
2019/04/01,08:50,0.203,0.187,0.310,0.290,0.277,0.154,0.092,north-northwest,3.2,No
2019/04/01,09:00,0.203,0.186,0.311,0.287,0.275,0.155,0.094,north-northwest,2.5,No
2019/04/01,09:10,0.205,0.189,0.310,0.288,0.275,0.154,0.093,north,2.9,No
2019/04/01,09:20,0.204,0.188,0.310,0.288,0.274,0.155,0.094,north-northwest,4.0,No
2019/04/01,09:30,0.204,0.189,0.311,0.288,0.277,0.154,0.093,north-northwest,3.8,No
2019/04/01,09:40,0.205,0.189,0.310,0.289,0.274,0.154,0.093,north-northeast,3.0,No
2019/04/01,09:50,0.205,0.188,0.310,0.286,0.276,0.154,0.093,north-northeast,3.9,No
2019/04/01,10:00,0.205,0.188,0.313,0.289,0.273,0.154,0.093,north,4.8,No
2019/04/01,10:10,0.204,0.187,0.310,0.286,0.276,0.154,0.094,north-northeast,4.6,No
2019/04/01,10:20,0.205,0.189,0.310,0.287,0.273,0.155,0.093,northeast,6.4,No
2019/04/01,10:30,0.204,0.187,0.310,0.288,0.275,0.155,0.093,northeast,7.0,No
2019/04/01,10:40,0.205,0.188,0.310,0.287,0.274,0.155,0.093,northeast,6.8,No
2019/04/01,10:50,0.205,0.188,0.311,0.290,0.276,0.154,0.094,north-northeast,7.3,No
2019/04/01,11:00,0.204,0.187,0.310,0.287,0.273,0.155,0.093,northeast,8.1,No
2019/04/01,11:10,0.204,0.188,0.309,0.290,0.275,0.154,0.093,north-northeast,6.7,No
2019/04/01,11:20,0.205,0.188,0.310,0.288,0.276,0.155,0.093,northeast,7.8,No
2019/04/01,11:30,0.204,0.188,0.310,0.290,0.277,0.155,0.094,northeast,7.4,No
2019/04/01,11:40,0.205,0.189,0.311,0.288,0.277,0.154,0.093,east-northeast,6.8,No
2019/04/01,11:50,0.206,0.189,0.310,0.290,0.275,0.155,0.095,east-northeast,5.7,No
2019/04/01,12:00,0.204,0.188,0.309,0.288,0.277,0.154,0.093,northeast,4.7,No
2019/04/01,12:10,0.205,0.189,0.313,0.291,0.275,0.155,0.094,east-northeast,4.8,No
2019/04/01,12:20,0.206,0.189,0.311,0.290,0.276,0.156,0.093,northeast,5.5,No
2019/04/01,12:30,0.206,0.189,0.311,0.289,0.278,0.155,0.093,northeast,6.2,No
2019/04/01,12:40,0.205,0.188,0.312,0.291,0.274,0.155,0.093,northeast,4.5,No
2019/04/01,12:50,0.205,0.189,0.308,0.288,0.277,0.156,0.094,northeast,4.8,No
2019/04/01,13:00,0.205,0.188,0.310,0.291,0.273,0.155,0.094,northeast,3.7,No
2019/04/01,13:10,0.206,0.189,0.309,0.288,0.276,0.154,0.093,north-northeast,5.2,Yes
2019/04/01,13:20,0.205,0.191,0.310,0.289,0.276,0.153,0.093,northeast,5.6,Yes
2019/04/01,13:30,0.205,0.188,0.311,0.290,0.276,0.154,0.094,northeast,4.5,No
2019/04/01,13:40,0.206,0.188,0.311,0.290,0.277,0.156,0.093,north-northeast,4.5,No
2019/04/01,13:50,0.206,0.189,0.312,0.290,0.275,0.156,0.093,north-northeast,5.1,No
2019/04/01,14:00,0.206,0.189,0.312,0.290,0.276,0.155,0.094,north-northeast,6.4,No
2019/04/01,14:10,0.205,0.189,0.311,0.289,0.275,0.154,0.093,north-northeast,6.5,No
2019/04/01,14:20,0.205,0.189,0.311,0.290,0.276,0.154,0.093,northeast,4.6,No
2019/04/01,14:30,0.205,0.190,0.312,0.288,0.275,0.156,0.093,north-northeast,7.1,No
2019/04/01,14:40,0.205,0.189,0.311,0.289,0.273,0.155,0.094,north-northeast,6.5,No
2019/04/01,14:50,0.205,0.187,0.311,0.289,0.277,0.155,0.093,north-northeast,7.1,No
2019/04/01,15:00,0.205,0.189,0.312,0.289,0.277,0.155,0.093,northeast,6.6,Yes
2019/04/01,15:10,0.206,0.189,0.310,0.290,0.276,0.154,0.093,northeast,5.9,Yes
2019/04/01,15:20,0.207,0.189,0.312,0.292,0.277,0.155,0.094,north-northeast,6.2,No
2019/04/01,15:30,0.206,0.191,0.313,0.291,0.276,0.156,0.094,north-northeast,5.4,No
2019/04/01,15:40,0.207,0.190,0.312,0.290,0.275,0.155,0.094,northeast,4.6,No
2019/04/01,15:50,0.205,0.190,0.311,0.291,0.277,0.155,0.094,northeast,3.5,No
2019/04/01,16:00,0.205,0.189,0.310,0.289,0.276,0.156,0.093,north-northeast,3.7,No
2019/04/01,16:10,0.206,0.190,0.311,0.290,0.276,0.155,0.093,north-northeast,4.1,No
2019/04/01,16:20,0.206,0.190,0.310,0.290,0.276,0.156,0.093,north-northeast,3.4,No
2019/04/01,16:30,0.205,0.190,0.310,0.290,0.274,0.156,0.094,northeast,4.4,No
2019/04/01,16:40,0.205,0.190,0.312,0.290,0.275,0.154,0.093,west-northwest,3.5,No
2019/04/01,16:50,0.206,0.188,0.310,0.291,0.274,0.155,0.093,north-northeast,2.3,No
2019/04/01,17:00,0.206,0.189,0.311,0.290,0.276,0.155,0.094,northeast,3.1,No
2019/04/01,17:10,0.206,0.189,0.312,0.291,0.274,0.155,0.094,northeast,2.7,No
2019/04/01,17:20,0.206,0.190,0.311,0.291,0.274,0.156,0.094,northeast,2.7,No
2019/04/01,17:30,0.205,0.189,0.312,0.291,0.276,0.154,0.094,northeast,2.6,No
2019/04/01,17:40,0.206,0.189,0.311,0.291,0.275,0.155,0.093,northeast,3.0,Yes
2019/04/01,17:50,0.205,0.190,0.311,0.290,0.275,0.156,0.093,north-northeast,2.7,Yes
2019/04/01,18:00,0.206,0.190,0.311,0.291,0.277,0.155,0.094,north-northeast,2.2,No
2019/04/01,18:10,0.206,0.188,0.312,0.292,0.275,0.155,0.094,northeast,2.3,No
2019/04/01,18:20,0.206,0.188,0.313,0.290,0.275,0.155,0.093,north-northwest,1.4,No
2019/04/01,18:30,0.205,0.189,0.311,0.290,0.276,0.155,0.094,north,1.3,No
2019/04/01,18:40,0.206,0.189,0.310,0.292,0.275,0.155,0.095,northeast,2.4,No
2019/04/01,18:50,0.205,0.188,0.312,0.290,0.277,0.156,0.094,northeast,2.6,No
2019/04/01,19:00,0.205,0.189,0.311,0.289,0.277,0.155,0.094,north-northeast,1.8,No
2019/04/01,19:10,0.206,0.189,0.310,0.292,0.276,0.155,0.093,north-northeast,2.9,No
2019/04/01,19:20,0.205,0.189,0.311,0.289,0.273,0.156,0.095,northeast,2.5,No
2019/04/01,19:30,0.206,0.188,0.312,0.290,0.275,0.155,0.094,east-northeast,1.3,No
2019/04/01,19:40,0.205,0.189,0.310,0.291,0.275,0.154,0.094,northeast,2.1,No
2019/04/01,19:50,0.206,0.189,0.310,0.292,0.275,0.155,0.094,north-northeast,2.1,No
2019/04/01,20:00,0.207,0.189,0.310,0.290,0.274,0.156,0.093,north-northeast,2.1,No
2019/04/01,20:10,0.206,0.188,0.311,0.292,0.275,0.155,0.094,north,1.6,No
2019/04/01,20:20,0.206,0.189,0.311,0.289,0.276,0.154,0.094,northeast,1.4,No
2019/04/01,20:30,0.207,0.189,0.311,0.292,0.275,0.155,0.094,north,1.3,No
2019/04/01,20:40,0.205,0.189,0.314,0.290,0.275,0.155,0.094,north,0.9,No
2019/04/01,20:50,0.204,0.190,0.311,0.290,0.274,0.155,0.094,north-northwest,1.9,No
2019/04/01,21:00,0.205,0.189,0.311,0.290,0.275,0.155,0.094,north,1.2,No
2019/04/01,21:10,0.206,0.189,0.312,0.291,0.276,0.154,0.094,north-northwest,1.9,No
2019/04/01,21:20,0.205,0.190,0.313,0.291,0.276,0.155,0.093,north,3.1,No
2019/04/01,21:30,0.206,0.189,0.311,0.291,0.276,0.156,0.093,north-northwest,2.2,No
2019/04/01,21:40,0.205,0.189,0.312,0.292,0.275,0.155,0.095,north-northwest,2.4,No
2019/04/01,21:50,0.205,0.189,0.312,0.289,0.276,0.156,0.094,north-northwest,2.2,No
2019/04/01,22:00,0.206,0.189,0.312,0.291,0.276,0.155,0.094,north-northwest,2.3,No
2019/04/01,22:10,0.205,0.190,0.311,0.293,0.275,0.156,0.094,northwest,2.8,No
2019/04/01,22:20,0.205,0.189,0.312,0.291,0.276,0.155,0.093,north-northwest,2.5,No
2019/04/01,22:30,0.206,0.188,0.311,0.291,0.276,0.156,0.094,northwest,2.6,No
2019/04/01,22:40,0.205,0.189,0.312,0.290,0.275,0.157,0.093,north-northwest,2.6,No
2019/04/01,22:50,0.205,0.190,0.312,0.291,0.275,0.155,0.095,west-northwest,2.1,No
2019/04/01,23:00,0.207,0.189,0.311,0.291,0.275,0.156,0.093,-,CALM,No
2019/04/01,23:10,0.205,0.189,0.311,0.291,0.275,0.155,0.094,north-northwest,2.9,No
2019/04/01,23:20,0.206,0.190,0.312,0.291,0.276,0.155,0.094,northwest,2.9,No
2019/04/01,23:30,0.206,0.189,0.313,0.292,0.276,0.155,0.094,north-northwest,2.7,No
2019/04/01,23:40,0.206,0.189,0.310,0.290,0.276,0.156,0.093,north-northwest,2.4,No
2019/04/01,23:50,0.205,0.189,0.311,0.290,0.275,0.156,0.094,north-northwest,2.6,No
